Regional Weather Roundup
Issued by NWS New Orleans/Baton Rouge, LA

Home | Current Version | Previous Version | Text Only | Print | Product List | Glossary Off
Versions: 1 2 3 4 5 6 7 8 9 10 11 12 13 14 15 16 17 18 19 20 21 22 23 24 25 26 27 28 29 30 31 32 33 34 35 36 37 38 39 40 41 42 43 44 45 46 47 48 49 50

965
ASUS44 KLIX 292001
RWRLIX
NEW ORLEANS REGIONAL WEATHER ROUNDUP
NATIONAL WEATHER SERVICE NEW ORLEANS LA
200 PM CST THU JAN 29 2015

NOTE: "FAIR" INDICATES FEW OR NO CLOUDS BELOW 12,000 FEET WITH NO
      SIGNIFICANT WEATHER AND/OR OBSTRUCTIONS TO VISIBILITY.
      SKY/WX - SKY CONDITION AND SIGNIFICANT WEATHER.
      TMP - AIR TEMPERATURE.     DP    - DEWPOINT TEMPERATURE.
      RH  - RELATIVE HUMIDITY.   PRES  - PRESSURE.
      HI  - HEAT INDEX.          WCI   - WIND CHILL INDEX.

*  THESE STATIONS ARE NOT NWS OR FAA STATIONS AND ARE NOT UNDER
   NWS QUALITY CONTROL.

LAZ038-040-048-061>063-065>067-069-292100-
SOUTHEAST LOUISIANA

CITY           SKY/WX    TMP DP  RH WIND       PRES   REMARKS
N.O. AUDUBON   NOT AVBL
N.O. INTL ARPT MOSUNNY   76  56  49 S10       30.19F
N.O. LAKEFRONT SUNNY     74  56  53 CALM      30.20F
N.O. DOWNTOWN* NOT AVBL
SLIDELL        SUNNY     72  56  57 SW13G18   30.19F
BATON ROUGE    SUNNY     77  52  41 W13       30.18F
BOOTHVILLE     SUNNY     70  56  61 S8        30.23F
BELLE CHASSE   PTSUNNY   76  55  48 SW9       30.20F
BOGALUSA*        N/A     77  53  43 SW9G16    30.19F
GALLIANO*      NOT AVBL
NEW ROADS*     NOT AVBL
GONZALES*      NOT AVBL
HAMMOND*       NOT AVBL
HOUMA*         MOSUNNY   73  57  56 SW12      30.21F
PORT FOURCHON* PTCLDY    72  61  68 S5        30.25F

$$

MSZ070-080>082-292100-
SOUTHERN MISSISSIPPI

CITY           SKY/WX    TMP DP  RH WIND       PRES   REMARKS
MCCOMB         SUNNY     75  52  44 W13       30.16F
GULFPORT       SUNNY     67  53  61 S13       30.20F
BILOXI         SUNNY     68  54  62 S9        30.21F
PASCAGOULA     SUNNY     69  53  56 S9        30.21F

$$

COASTAL OBSERVATIONS
LAKE AND NEARSHORE STATIONS

STATION/POSITION TIME  TEMP    WIND        PRES    WAVE
                       AIR SEA DIR/SP/G            HT/PER
                 (UTC) (F)     (DEG/KT/KT) (MB)    (FT/S)
PASCAGOULA       1900   65     180/  5/  7 1023.6
WAVELAND YACHT   1900   62     160/  8/ 10 1023.0
GRAND ISLE       1900   68 62  160/  5/  9 1024.5
SOUTHWEST PASS   1900   75 46  160/  6/  7 1024.2
NEW CANAL        1900   58 54   30/  3/  4 1024.1
SHELL BEACH      1900   69 56  230/  7/ 14 1023.7

OFFSHORE STATIONS

STATION/POSITION TIME  TEMP    WIND        PRES    WAVE
                       AIR SEA DIR/SP/G            HT/PER
                 (UTC) (F)     (DEG/KT/KT) (MB)    (FT/S)
64 S DAUPHIN ISL 1913   67 70  210/  8/ 10 1023.9    2/ 5

$$




USA.gov is the U.S. government's official web portal to all federal, state and local government web resources and services.